Regional Weather Roundup
Issued by NWS Charleston, WV

Home | Current Version | Previous Version | Text Only | Print | Product List | Glossary Off
Versions: 1 2 3 4 5 6 7 8 9 10 11 12 13 14 15 16 17 18 19 20 21 22 23 24 25 26 27 28 29 30 31 32 33 34 35 36 37 38 39 40 41 42 43 44 45 46 47 48 49 50

116
ASUS41 KRLX 292010
RWRRLX
West Virginia Regional Weather Roundup
National Weather Service Charleston WV
400 PM EDT SUN MAY 29 2016

Note: "fair" indicates few or no clouds below 12,000 feet with no
significant weather and/or obstructions to visibility.

WVZ003-292100-
Northern Panhandle of West Virginia

CITY           SKY/WX    TMP DP  RH WIND       PRES   REMARKS
WHEELING         N/A     79  64  60 SW7       30.08F
$$

WVZ009-292100-
Northwest West Virginia

CITY           SKY/WX    TMP DP  RH WIND       PRES   REMARKS
PARKERSBURG    CLOUDY    76  67  73 W12       30.14R
$$

WVZ006-292100-
Western West Virginia

CITY           SKY/WX    TMP DP  RH WIND       PRES   REMARKS
HUNTINGTON       N/A     80  67  64 VRB3      30.09F
$$

WVZ015-292100-
West Central West Virginia

CITY           SKY/WX    TMP DP  RH WIND       PRES   REMARKS
CHARLESTON     CLOUDY    80  64  58 S5        30.08F
$$

WVZ022-031-292100-
North Central West Virginia

CITY           SKY/WX    TMP DP  RH WIND       PRES   REMARKS
CLARKSBURG     LGT RAIN  70  62  76 CALM      30.13F
MORGANTOWN     CLOUDY    75  64  68 VRB6      30.13S
$$

WVZ025-035-042-045-292100-
Southern West Virginia

CITY           SKY/WX    TMP DP  RH WIND       PRES   REMARKS
BECKLEY        CLOUDY    72  59  63 E7        30.17F
LOGAN            N/A     77  63  61 CALM      30.12F
BLUEFIELD      CLOUDY    70  57  63 CALM      30.20F
LEWISBURG      CLOUDY    70  60  71 N3        30.18F
$$

WVZ047-292100-
Northern Mountains of West Virginia

CITY           SKY/WX    TMP DP  RH WIND       PRES   REMARKS
ELKINS         LGT RAIN  68  63  84 CALM      30.17F
$$

WVZ052-292100-
Eastern Panhandle of West Virginia

CITY           SKY/WX    TMP DP  RH WIND       PRES   REMARKS
MARTINSBURG      N/A     80  60  50 SE3       30.07F
PETERSBURG     DRIZZLE   75  67  77 W7        30.12F
$$




USA.gov is the U.S. government's official web portal to all federal, state and local government web resources and services.